星链-3737 (STARLINK-3737 )

导读

STARLINK-3737是美国SpaceX公司星链(Starlink)项目中的一颗卫星,于2022年3月19日发射升空,属于星链星座组网卫星,旨在为全球提供高速互联网接入服务,尤其覆盖偏远地区与网络基础设施薄弱区域,是SpaceX大规模低轨卫星星座建设进程中的组成部分,助力全球卫星互联网服务布局。

基本信息
目录编号:
52114
目录名称:
STARLINK-3737
国际标识:
2022-029AC
轨道中心:
EARTH
卫星名称:
星链-3737
卫星全名:
星链-3737 (STARLINK-3737 )
卫星状态:
在轨 (已飞行1631 天)
发射日期:
2022-03-19 UTC
国别 :
美国 (US)
星等 :
--
轨道信息
数据来源 国际轨道数据
星历时间: 2026-09-05T00:26:03+0800
19小时前
查看轨道信息
半长轴: 6840.88km
偏心率: 0.0001178
轨道倾角: 53.162°
近地点辐角 83.060°
升交点赤经 343.293°
平近点角 277.053°
近地点: 461.937km
远地点: 463.549km
周期: 93.849分钟
每日圈数: 15.343869
详细信息
固有亮度:
5
最大亮度:
2.5
卫星平台:
Starlink v1.5
覆盖范围:
全球
运营商:
太空探索技术公司
运营商所在国:
美国
制造商(研发单位):
太空探索技术公司
制造商所在国:
美国
使用方式:
暂无
卫星简介
星链(Starlink)计划是由太空探索技术公司(SpaceX)提出的一个巨型低轨卫星互联网星座项目,计划在2019年至2024年间在太空搭建由约1.2万颗卫星组成的“星链”网络,其中1584颗将部署在地球上空550千米处的近地轨道,并从2020年开始工作。该卫星仍在工作。
2D轨道图
3D轨道图
轨道高度分析图
轨道倾角分析图
轨道综合分析图
查看轨道综合分析图
交会数据列表
事件ID 空间交会对象 最接近时刻(TCA) 交会距离 交会风险概率(CRP) 交会风险指数(CRI) 操作
CDM_260907-182405-211406-807021
2026-09-07T
18:24:38+0000
0.184 km
中距离
6.999007E-4 高风险 0.92
CDM_260907-163805-211406-410621
2026-09-07T
16:38:01+0000
0.481 km
远距离
1.460494E-4 高风险 0.78
CDM_260907-080605-211406-034321
2026-09-07T
08:06:40+0000
0.741 km
远距离
1.965553E-5 中风险 0.61
CDM_260907-120105-211406-034321
2026-09-07T
12:01:10+0000
0.855 km
远距离
1.221655E-5 中风险 0.57
CDM_260907-150405-211406-410621
2026-09-07T
15:04:14+0000
2.275 km
极远距离
1.362317E-6 低风险 0.38
CDM_260907-094005-211406-034321
2026-09-07T
09:40:28+0000
2.376 km
极远距离
6.434657E-7 极低风险 0.31
CDM_260907-102705-211406-034321
2026-09-07T
10:27:22+0000
2.528 km
极远距离
5.842741E-7 极低风险 0.3